Regional Weather Roundup
Issued by NWS

Home | Current Version | Previous Version | Graphics & Text | Print | Product List | Glossary On
Versions: 1 2 3 4 5 6 7 8 9 10 11 12 13 14 15 16 17 18 19 20 21 22 23 24 25 26 27 28 29 30 31 32 33 34 35 36 37 38 39 40 41 42 43 44 45 46 47 48 49 50
000
ASUS43 KMPX 032210
RWRMN
WEATHER ROUNDUP FOR MINNESOTA
NATIONAL WEATHER SERVICE TWIN CITIES/CHANHASSEN MN
500 PM CDT MON AUG 03 2015


NOTE: "FAIR" INDICATES FEW OR NO CLOUDS BELOW 12,000 FEET WITH NO
SIGNIFICANT WEATHER AND/OR OBSTRUCTIONS TO VISIBILITY. N/A MEANS
CURRENT SKY AND/OR WEATHER CONDITIONS ARE NOT AVAILABLE.

MNZ060>063-068>070-032300-
   Twin Cities Metro

CITY           SKY/WX    TMP DP  RH WIND       PRES   REMARKS
TWIN CITIES    MOSUNNY   79  48  33 W16G24    29.89F
ST PAUL        PTSUNNY   79  49  34 W14G23    29.89S
CRYSTAL        MOSUNNY   80  49  33 W15       29.88S
BLAINE         PTSUNNY   77  52  41 NW7       29.89
LAKEVILLE      MOSUNNY   75  52  43 NW8       29.90S
EDEN PRAIRIE   MOSUNNY   79  49  34 W9G20     29.89S
SOUTH ST PAUL  SUNNY     79  46  31 W9        29.89S
LAKE ELMO      FAIR      73  50  43 NW7       29.90S
$$
MNZ001>005-007-008-013>017-022>024-027-028-032300-
   Northwest Minnesota

CITY           SKY/WX    TMP DP  RH WIND       PRES   REMARKS
BEMIDJI        MOSUNNY   70  50  48 NW16G22   29.91R
HALLOCK        SUNNY     75  45  33 NW15G21   29.91S
ROSEAU         MOSUNNY   70  54  56 NW9       29.90S
WARROAD        SUNNY     72  52  49 NW13      29.90S
THIEF RVR FALL MOSUNNY   72  48  43 NW15      29.93R
CROOKSTON      SUNNY     75  48  38 N15       29.92F
FOSSTON        MOSUNNY   73  48  40 NW13G20   29.93S
DETROIT LAKES  SUNNY     73  46  38 NW15G23   29.95S
MOORHEAD       SUNNY     75  50  41 N15G21    29.93S
PARK RAPIDS    PTSUNNY   74  50  42 NW18G24   29.91S
MAHNOMEN       FAIR      72  50  45 NW9G23    29.93R
$$
MNZ006-009>011-018-025>026-032300-
   North Central Minnesota

CITY           SKY/WX    TMP DP  RH WIND       PRES   REMARKS
BAUDETTE       CLOUDY    68  53  58 NW16      29.89S
FLAG ISLAND    CLOUDY    66  52  59 NW15      29.87S
INTL FALLS     CLOUDY    64  57  78 NW15G21   29.86S
WASKISH        CLOUDY    64  54  68 NW10      29.91R
BIG FORK       PTSUNNY   66  52  59 W7        29.89R
LONGVILLE      CLOUDY    70  54  56 NW6       29.90S
GRAND RAPIDS   CLOUDY    70  50  49 NW15      29.89R
CRANE LAKE     CLOUDY    61  55  82 W5        29.87R
ORR            RAIN      63  54  72 NW9G22    29.84S
COOK           PTSUNNY   64  55  72 NW12G18   29.87R
WALKER         MOCLDY    71  51  48 NW13G22   29.90S
$$
MNZ012-019>021-037-032300-
   Northeast Minnesota

CITY           SKY/WX    TMP DP  RH WIND       PRES   REMARKS
DULUTH         PTSUNNY   70  52  52 NW14G22   29.86R
ELY            PTSUNNY   63  55  77 NW3       29.85R
HIBBING        CLOUDY    67  53  61 W12       29.87R
EVELETH        MOSUNNY   64  50  59 W13G18    29.87S
DULUTH HARBOR  PTSUNNY   72  55  56 W20       29.84S
TWO HARBORS    CLOUDY    72  57  60 W8        29.82R
SILVER BAY     DRIZZLE   64  59  82 NW3       29.83R
GRAND MARAIS     N/A     70  52  52 VRB5      29.76R
G MARAIS ARPRT   N/A     63  48  59 W10G18    29.81R
$$
MNZ029>031-032-039>041-046>048-054>057-064-032300-
   West Central Minnesota

CITY           SKY/WX    TMP DP  RH WIND       PRES   REMARKS
FERGUS FALLS   SUNNY     75  48  38 N13G21    29.92S
WHEATON        SUNNY     75  50  41 NW12      29.95S
MORRIS         SUNNY     79  54  41 NW12G20   29.93S
ALEXANDRIA     SUNNY     76  48  37 NW12      29.95S
ELBOW LAKE     FAIR      76  49  38 N14G21    29.93S
WADENA         MOSUNNY   75  50  41 NW16      29.92S
GLENWOOD       SUNNY     75  50  41 NW13G20   29.94S
APPLETON       SUNNY     81  48  32 NW13G18   29.93S
BENSON         MOSUNNY   79  48  34 N12       29.93S
ORTONVILLE     SUNNY     79  46  31 NW12      29.94S
MADISON        SUNNY     79  48  34 NW8       29.94S
WILLMAR        FAIR      79  52  38 NW16G23   29.95R
$$
MNZ033>034-036-042>043-049>051-058-059-032300-
   Central Minnesota

CITY           SKY/WX    TMP DP  RH WIND       PRES   REMARKS
ST CLOUD       MOSUNNY   77  49  37 NW12G21   29.90R
SAUK CENTRE    FAIR      76  49  39 NW13G21   29.92S
PAYNESVILLE    SUNNY     75  49  39 W15G21    29.93S
AITKIN         PTSUNNY   72  54  53 NW6       29.88R
PINE RIVER     CLOUDY    72  54  53 NW12G17   29.93S
BRAINERD       CLOUDY    74  50  42 NW13      29.90R
STAPLES        PTSUNNY   75  46  35 NW14G23   29.91S
LONG PRAIRIE   FAIR      73  48  40 NW13G21   29.93R
LITTLE FALLS     N/A     77  43  29 NW10      29.90S
LITCHFIELD     MOSUNNY   77  52  41 W12G20    29.93S
BUFFALO        MOSUNNY   77  49  37 W10       29.91S
$$
MNZ037-044-045-052-053-032300-
   East Central Minnesota

CITY           SKY/WX    TMP DP  RH WIND       PRES   REMARKS
PRINCETON      MOSUNNY   79  52  38 W7        29.89S
MORA           MOSUNNY   73  48  40 NW8       29.90S
CAMBRIDGE      PTSUNNY   79  55  44 NW12      29.87S
RUSH CITY      CLOUDY    74  52  46 NW6       29.89R
MOOSE LAKE     CLOUDY    72  52  49 NW9       29.86S
HINCKLEY       CLOUDY    72  52  49 W7        29.88S
CLOQUET        CLOUDY    70  52  52 W8        29.87S
MCGREGOR       CLOUDY    72  52  49 NW9       29.89R
$$
MNZ071>073-080-081-089-090-097-098-032300-
   Southwest Minnesota

CITY           SKY/WX    TMP DP  RH WIND       PRES   REMARKS
MONTEVIDEO     SUNNY     82  54  36 N9G16     29.96R
GRANITE FALLS  SUNNY     78  53  41 NW9       29.95S
CANBY          SUNNY     80  52  37 NW7       29.95S
MARSHALL       MOSUNNY   81  50  34 NW12G17   29.96S
REDWOOD FALLS  SUNNY     81  50  33 NW10G22   29.93S
OLIVIA         SUNNY     73  48  40 NW12G20   29.93S
PIPESTONE      MOSUNNY   79  55  44 NW8       29.98S
WINDOM         SUNNY     79  54  41 W12       29.96S
WORTHINGTON    MOSUNNY   79  54  41 W13       29.97S
JACKSON        MOSUNNY   79  54  41 W10       29.96F
TRACY          PTSUNNY   81  57  44 NW7       29.96S
SLAYTON        MOSUNNY   79  53  40 NW7G16    29.98S
$$
MNZ065>067-074>077-082>085-091>093-032300-
   South Central Minnesota

CITY           SKY/WX    TMP DP  RH WIND       PRES   REMARKS
MANKATO        SUNNY     77  48  36 NW15G22   29.92S
NEW ULM        SUNNY     79  46  31 W12G21    29.93S
FAIRMONT       SUNNY     79  48  34 NW14      29.94F
GLENCOE        SUNNY     78  53  41 NW12G18   29.91S
FARIBAULT      SUNNY     75  54  46 W12G17    29.92S
OWATONNA       SUNNY     77  50  38 NW13      29.92S
WASECA         SUNNY     77  52  41 NW12G18   29.94S
ALBERT LEA     SUNNY     77  48  36 NW9G17    29.93S
$$
MNZ078>079-086>088-094>096-032300-
   Southeast Minnesota

CITY           SKY/WX    TMP DP  RH WIND       PRES   REMARKS
ROCHESTER      SUNNY     75  54  47 NW14      29.92F
RED WING       SUNNY     81  45  28 NW9       29.87F
STANTON        MOSUNNY   78  49  36 NW14      29.90S
DODGE CENTER   SUNNY     73  48  40 NW12G17   29.93R
WINONA         MOSUNNY   79  50  36 NW12G17   29.89S
AUSTIN         SUNNY     77  52  41 W13G20    29.92S
PRESTON        SUNNY     74  51  44 W12       29.92S
$$
ABBREVIATIONS USED IN REMARKS
   TC - TEMPERATURES IN CELSIUS
  WCI - WIND CHILL INDEX
   HX - HEAT INDEX
  VSB - VISIBILITY
$$



USA.gov is the U.S. government's official web portal to all federal, state and local government web resources and services.